TimeEST,TemperatureF,Dew PointF,Humidity,Sea Level PressureIn,VisibilityMPH,Wind Direction,Wind SpeedMPH,Gust SpeedMPH,PrecipitationIn,Events,Conditions,WindDirDegrees,DateUTC
12:15 AM,28.4,17.6,64,29.96,10.0,West,18.4,26.5,N/A,,Mostly Cloudy,260,2013-02-20 05:15:00
12:35 AM,26.6,21.2,80,29.97,2.0,WNW,10.4,21.9,0.10,Snow,Light Snow,290,2013-02-20 05:35:00
12:55 AM,26.6,23.0,86,29.98,1.5,West,6.9,-,0.35,Snow,Light Snow,280,2013-02-20 05:55:00
1:15 AM,26.6,23.0,86,29.98,1.5,West,8.1,23.0,0.17,Snow,Light Snow,260,2013-02-20 06:15:00
1:35 AM,26.6,23.0,86,29.98,1.5,West,8.1,-,0.33,Snow,Snow,280,2013-02-20 06:35:00
1:55 AM,24.8,21.2,86,29.98,2.5,WNW,13.8,17.3,0.46,Snow,Light Snow,300,2013-02-20 06:55:00
2:15 AM,24.8,21.2,86,29.98,3.0,West,9.2,-,0.02,Snow,Light Snow,270,2013-02-20 07:15:00
2:35 AM,24.8,19.4,80,29.99,5.0,WSW,10.4,16.1,0.05,Snow,Light Snow,250,2013-02-20 07:35:00
2:55 AM,24.8,21.2,86,29.99,2.5,WSW,9.2,17.3,0.12,Snow,Light Snow,250,2013-02-20 07:55:00
3:15 AM,23.0,21.2,93,29.99,2.0,WNW,10.4,-,0.07,Snow,Light Snow,290,2013-02-20 08:15:00
3:35 AM,23.0,19.4,86,30.00,3.0,West,15.0,20.7,0.19,Snow,Light Snow,270,2013-02-20 08:35:00
3:55 AM,23.0,17.6,80,30.00,7.0,West,12.7,19.6,0.20,Snow,Light Snow,270,2013-02-20 08:55:00
4:15 AM,23.0,17.6,80,30.00,8.0,West,11.5,18.4,N/A,Snow,Light Snow,260,2013-02-20 09:15:00
4:35 AM,23.0,17.6,80,30.01,5.0,West,6.9,17.3,0.02,Snow,Light Snow,270,2013-02-20 09:35:00
4:55 AM,23.0,15.8,74,30.02,7.0,West,16.1,20.7,0.04,Snow,Light Snow,270,2013-02-20 09:55:00
5:15 AM,23.0,14.0,68,30.03,10.0,West,12.7,20.7,N/A,,Mostly Cloudy,270,2013-02-20 10:15:00
5:35 AM,23.0,14.0,68,30.03,10.0,West,11.5,17.3,N/A,,Overcast,270,2013-02-20 10:35:00
5:55 AM,23.0,14.0,68,30.04,10.0,West,10.4,17.3,N/A,Snow,Light Snow,270,2013-02-20 10:55:00
6:15 AM,23.0,17.6,80,30.04,2.0,WNW,13.8,23.0,0.07,Snow,Light Snow,300,2013-02-20 11:15:00
6:55 AM,23.0,14.0,68,30.05,10.0,WSW,11.5,20.7,0.10,,Overcast,250,2013-02-20 11:55:00
7:15 AM,23.0,14.0,68,30.06,10.0,West,11.5,17.3,N/A,,Overcast,260,2013-02-20 12:15:00
7:35 AM,23.0,12.2,63,30.07,10.0,West,16.1,24.2,N/A,Snow,Light Snow,260,2013-02-20 12:35:00
7:55 AM,23.0,14.0,68,30.08,10.0,WSW,12.7,24.2,N/A,,Mostly Cloudy,250,2013-02-20 12:55:00
8:15 AM,23.0,14.0,68,30.08,5.0,WSW,16.1,24.2,N/A,Snow,Light Snow,250,2013-02-20 13:15:00
8:55 AM,21.2,15.8,80,30.09,2.5,West,13.8,18.4,0.08,Snow,Light Snow,260,2013-02-20 13:55:00
9:15 AM,23.0,14.0,68,30.09,4.0,West,11.5,19.6,N/A,Snow,Light Snow,260,2013-02-20 14:15:00
9:35 AM,23.0,14.0,68,30.08,4.0,SW,18.4,23.0,0.01,Snow,Light Snow,230,2013-02-20 14:35:00
9:55 AM,23.0,14.0,68,30.09,10.0,SW,13.8,21.9,0.01,,Partly Cloudy,230,2013-02-20 14:55:00
10:15 AM,23.0,14.0,68,30.09,5.0,West,13.8,21.9,N/A,Snow,Light Snow,260,2013-02-20 15:15:00
10:35 AM,23.0,15.8,74,30.09,5.0,West,12.7,19.6,0.03,,Partly Cloudy,260,2013-02-20 15:35:00
10:55 AM,23.0,15.8,74,30.09,3.0,WSW,10.4,-,0.05,Snow,Light Snow,250,2013-02-20 15:55:00
11:15 AM,23.0,15.8,74,30.09,8.0,West,13.8,18.4,N/A,Snow,Light Snow,270,2013-02-20 16:15:00
11:55 AM,24.8,12.2,59,30.09,10.0,WSW,17.3,23.0,0.01,,Mostly Cloudy,250,2013-02-20 16:55:00
12:15 PM,23.0,14.0,68,30.10,9.0,WSW,12.7,24.2,N/A,Snow,Light Snow,250,2013-02-20 17:15:00
12:35 PM,24.8,14.0,64,30.10,9.0,WSW,15.0,18.4,N/A,,Scattered Clouds,240,2013-02-20 17:35:00
12:55 PM,26.6,14.0,59,30.09,10.0,SW,16.1,20.7,N/A,,Scattered Clouds,230,2013-02-20 17:55:00
1:15 PM,26.6,12.2,55,30.09,10.0,WSW,12.7,23.0,N/A,,Scattered Clouds,250,2013-02-20 18:15:00
1:35 PM,26.6,12.2,55,30.09,10.0,West,17.3,27.6,N/A,,Mostly Cloudy,270,2013-02-20 18:35:00
1:55 PM,26.6,12.2,55,30.08,10.0,West,18.4,24.2,N/A,,Overcast,260,2013-02-20 18:55:00
2:15 PM,26.6,12.2,55,30.08,10.0,WSW,17.3,24.2,N/A,,Overcast,250,2013-02-20 19:15:00
2:35 PM,26.6,14.0,59,30.10,10.0,West,16.1,23.0,N/A,,Overcast,270,2013-02-20 19:35:00
3:15 PM,26.6,12.2,55,30.10,10.0,West,16.1,23.0,N/A,,Mostly Cloudy,280,2013-02-20 20:15:00
3:35 PM,26.6,14.0,59,30.11,10.0,WSW,16.1,21.9,N/A,,Mostly Cloudy,250,2013-02-20 20:35:00
3:55 PM,26.6,14.0,59,30.12,10.0,West,15.0,21.9,N/A,,Mostly Cloudy,270,2013-02-20 20:55:00
4:15 PM,26.6,14.0,59,30.13,10.0,West,16.1,23.0,N/A,,Mostly Cloudy,260,2013-02-20 21:15:00
4:35 PM,26.6,14.0,59,30.13,10.0,West,9.2,-,N/A,,Mostly Cloudy,270,2013-02-20 21:35:00
4:55 PM,26.6,14.0,59,30.14,10.0,WNW,6.9,16.1,N/A,,Mostly Cloudy,290,2013-02-20 21:55:00
5:15 PM,26.6,14.0,59,30.14,10.0,West,11.5,16.1,N/A,,Mostly Cloudy,260,2013-02-20 22:15:00
5:35 PM,24.8,14.0,64,30.15,10.0,NNW,9.2,-,N/A,,Mostly Cloudy,340,2013-02-20 22:35:00
5:55 PM,23.0,14.0,68,30.16,10.0,NW,9.2,-,N/A,Snow,Light Snow,310,2013-02-20 22:55:00
6:15 PM,23.0,14.0,68,30.16,10.0,NW,11.5,19.6,N/A,,Overcast,320,2013-02-20 23:15:00
6:35 PM,23.0,14.0,68,30.17,10.0,NNW,12.7,16.1,N/A,,Overcast,340,2013-02-20 23:35:00
6:55 PM,23.0,14.0,68,30.18,10.0,NNW,5.8,-,N/A,,Overcast,330,2013-02-20 23:55:00
7:15 PM,23.0,12.2,63,30.18,10.0,NNW,8.1,-,N/A,,Mostly Cloudy,330,2013-02-21 00:15:00
7:35 PM,21.2,12.2,68,30.18,10.0,NW,8.1,-,N/A,,Mostly Cloudy,320,2013-02-21 00:35:00
7:55 PM,21.2,10.4,63,30.18,10.0,NNW,6.9,-,N/A,,Mostly Cloudy,330,2013-02-21 00:55:00
8:15 PM,21.2,10.4,63,30.19,10.0,NW,6.9,-,N/A,,Overcast,310,2013-02-21 01:15:00
8:35 PM,21.2,12.2,68,30.20,10.0,NW,6.9,-,N/A,,Overcast,320,2013-02-21 01:35:00
8:55 PM,21.2,12.2,68,30.20,10.0,NNW,8.1,-,N/A,,Overcast,330,2013-02-21 01:55:00
9:15 PM,21.2,10.4,63,30.20,10.0,NW,8.1,-,N/A,,Mostly Cloudy,310,2013-02-21 02:15:00
9:35 PM,21.2,10.4,63,30.20,10.0,NW,6.9,-,N/A,,Mostly Cloudy,310,2013-02-21 02:35:00
9:55 PM,21.2,10.4,63,30.21,10.0,WNW,4.6,-,N/A,,Overcast,300,2013-02-21 02:55:00
10:35 PM,19.4,10.4,68,30.19,10.0,NW,5.8,-,N/A,,Overcast,320,2013-02-21 03:35:00
10:55 PM,19.4,10.4,68,30.18,10.0,NNW,3.5,-,N/A,,Overcast,330,2013-02-21 03:55:00
11:55 PM,19.4,10.4,68,30.19,10.0,West,6.9,-,N/A,,Mostly Cloudy,270,2013-02-21 04:55:00